Simultaneous Nadir Overpasses (SNOs) Predictions

Prediction of SNOs between AQUA and METOP-A Satellite Orbit:

Table of predicted SNOs for the next 14.0 days since TLE Epoch: 2/6/2015
Index Date (AQUA) Time (AQUA) Lat,Lon (AQUA) SZA (AQUA ) Date (METOP-A) Time (METOP-A) Lat,Lon (METOP-A) SZA (METOP-A ) Distance(km) Time Diff (sec)
1 02/07/2015 23:33:43 -73.80, 0.92 90.93 02/07/2015 23:32:47 -73.79, 1.01 90.93 2.88 56
2 02/08/2015 00:23:11 73.83, 168.50 89.09 02/08/2015 00:23:26 73.85, 168.48 89.12 3.18 15
3 02/08/2015 01:12:49 -74.47, -25.33 90.23 02/08/2015 01:13:55 -74.46, -22.67 90.35 79.40 66
4 02/10/2015 19:07:59 -73.79, 67.38 91.84 02/10/2015 19:07:11 -73.80, 67.43 91.82 1.69 48
5 02/10/2015 19:57:28 73.87,-125.16 88.24 02/10/2015 19:57:50 73.86,-125.10 88.22 2.25 22
6 02/13/2015 14:42:14 -73.78, 133.85 92.78 02/13/2015 14:41:35 -73.80, 133.83 92.75 2.50 39
7 02/13/2015 15:31:43 73.87, -58.70 87.30 02/13/2015 15:32:14 73.86, -58.71 87.29 0.82 31
8 02/16/2015 10:16:28 -73.82,-159.79 93.70 02/16/2015 10:15:58 -73.80,-159.78 93.72 2.35 30
9 02/16/2015 11:05:56 73.86, 7.77 86.33 02/16/2015 11:06:37 73.85, 7.67 86.32 2.97 41
10 02/19/2015 05:50:41 -73.81, -93.31 94.71 02/19/2015 05:50:22 -73.79, -93.40 94.72 3.36 19
11 02/19/2015 06:40:10 73.90, 74.13 85.38 02/19/2015 06:41:00 73.89, 74.16 85.36 1.67 50




NCC Satellite Simultaneous Nadir Overpasses (SNOs) Prediction Service
